Voltar ao catálogo

DELTA 1 DEB

AtivoSSO
NORAD 13574·DEBRIS·🇺🇸 United States

Lançado Mar 5, 1978 de Vandenberg Space Force Base

Loading…

Próximas Passagens (próximas 24 horas)

TLE

AtualizadoSource: Space-Track

Época: Sep 14, 2026, 11:26 UTC

1 13574U 78026FM  26257.47669626  .00000363  00000-0  19845-3 0  9993
2 13574  99.0506 251.1448 0036399 251.0342 262.6497 14.18096603319224

Acompanhe DELTA 1 DEB em tempo real com AllMySat

Download on the App Store